Time,TemperatureF,DewpointF,PressureIn,WindDirection,WindDirectionDegrees,WindSpeedMPH,WindSpeedGustMPH,Humidity,HourlyPrecipIn,Conditions,Clouds,dailyrainin,SoftwareType,DateUTC
2013-10-10 00:01:00,62.2,54.2,30.03,NNE,32,0.0,0.0,75,0.00,,---,0.00,VWS V14.01,2013-10-10 04:01:00,
2013-10-10 00:06:00,62.2,54.2,30.03,NNE,32,0.0,0.0,75,0.00,,---,0.00,VWS V14.01,2013-10-10 04:06:00,
2013-10-10 00:11:00,62.4,54.4,30.03,NNE,32,0.0,0.0,75,0.00,,---,0.00,VWS V14.01,2013-10-10 04:11:00,
2013-10-10 00:16:00,62.6,54.6,30.03,NNE,32,0.0,0.0,75,0.00,,---,0.00,VWS V14.01,2013-10-10 04:16:00,
2013-10-10 00:21:00,62.6,54.6,30.03,NNE,32,0.0,0.0,75,0.00,,---,0.00,VWS V14.01,2013-10-10 04:21:00,
2013-10-10 00:26:00,62.8,54.8,30.03,NNE,31,0.0,0.0,75,0.00,,---,0.00,VWS V14.01,2013-10-10 04:26:00,
2013-10-10 00:31:00,62.8,55.1,30.03,NNE,32,0.0,0.0,76,0.00,,---,0.00,VWS V14.01,2013-10-10 04:31:00,
2013-10-10 00:36:00,62.8,54.8,30.00,NNE,32,0.0,0.0,75,0.00,,---,0.00,VWS V14.01,2013-10-10 04:36:00,
2013-10-10 00:41:00,62.6,54.6,30.00,NNE,32,0.0,0.0,75,0.00,,---,0.00,VWS V14.01,2013-10-10 04:41:00,
2013-10-10 00:46:00,62.6,54.6,30.00,NNE,31,0.0,0.0,75,0.00,,---,0.00,VWS V14.01,2013-10-10 04:46:00,
2013-10-10 00:51:00,62.4,54.4,30.00,NNE,32,0.0,0.0,75,0.00,,---,0.00,VWS V14.01,2013-10-10 04:51:00,
2013-10-10 00:57:00,62.2,54.2,30.00,NNE,32,0.0,0.0,75,0.00,,---,0.00,VWS V14.01,2013-10-10 04:57:00,
2013-10-10 01:02:00,62.2,54.2,30.00,NNE,32,0.0,0.0,75,0.00,,---,0.00,VWS V14.01,2013-10-10 05:02:00,
2013-10-10 01:07:00,62.1,54.0,30.00,NNE,32,0.0,0.0,75,0.00,,---,0.00,VWS V14.01,2013-10-10 05:07:00,
2013-10-10 01:12:00,61.9,53.9,30.00,NNE,32,0.0,0.0,75,0.00,,---,0.00,VWS V14.01,2013-10-10 05:12:00,
2013-10-10 01:17:00,61.7,53.7,30.00,NNE,32,0.0,0.0,75,0.00,,---,0.00,VWS V14.01,2013-10-10 05:17:00,
2013-10-10 01:22:00,61.7,53.7,30.00,NNE,32,0.0,0.0,75,0.00,,---,0.00,VWS V14.01,2013-10-10 05:22:00,
2013-10-10 01:27:00,61.7,53.7,30.00,NNE,32,0.0,0.0,75,0.00,,---,0.00,VWS V14.01,2013-10-10 05:27:00,
2013-10-10 01:32:00,61.7,53.7,30.00,NNE,32,0.0,0.0,75,0.00,,---,0.00,VWS V14.01,2013-10-10 05:32:00,
2013-10-10 01:37:00,61.5,53.5,30.00,NNE,32,0.0,0.0,75,0.00,,---,0.00,VWS V14.01,2013-10-10 05:37:00,
2013-10-10 01:42:00,61.5,53.9,30.00,NNE,32,0.0,0.0,76,0.00,,---,0.00,VWS V14.01,2013-10-10 05:42:00,
2013-10-10 01:47:00,61.5,53.9,30.00,NNE,31,0.0,0.0,76,0.00,,---,0.00,VWS V14.01,2013-10-10 05:47:00,
2013-10-10 01:52:00,61.3,53.7,30.00,NNE,31,0.0,0.0,76,0.00,,---,0.00,VWS V14.01,2013-10-10 05:52:00,
2013-10-10 01:57:00,61.3,53.7,30.00,NNE,32,0.0,0.0,76,0.00,,---,0.00,VWS V14.01,2013-10-10 05:57:00,
2013-10-10 02:02:00,61.3,53.7,30.00,NNE,31,0.0,0.0,76,0.00,,---,0.00,VWS V14.01,2013-10-10 06:02:00,
2013-10-10 02:07:00,61.3,53.7,30.00,NNE,32,0.0,0.0,76,0.00,,---,0.00,VWS V14.01,2013-10-10 06:07:00,
2013-10-10 02:12:00,61.2,53.5,30.00,NNE,32,0.0,0.0,76,0.00,,---,0.00,VWS V14.01,2013-10-10 06:12:00,
2013-10-10 02:17:00,61.2,53.5,30.00,NNE,31,0.0,0.0,76,0.00,,---,0.00,VWS V14.01,2013-10-10 06:17:00,
2013-10-10 02:22:00,61.2,53.5,30.00,NNE,32,0.0,0.0,76,0.00,,---,0.00,VWS V14.01,2013-10-10 06:22:00,
2013-10-10 02:27:00,61.2,53.5,30.00,NNE,32,0.0,0.0,76,0.00,,---,0.00,VWS V14.01,2013-10-10 06:27:00,
2013-10-10 02:32:00,61.0,53.4,30.00,NNE,32,0.0,0.0,76,0.00,,---,0.00,VWS V14.01,2013-10-10 06:32:00,
2013-10-10 02:37:00,61.0,53.7,30.00,NNE,32,0.0,0.0,77,0.00,,---,0.00,VWS V14.01,2013-10-10 06:37:00,
2013-10-10 02:42:00,61.0,53.7,30.00,NNE,31,0.0,0.0,77,0.00,,---,0.00,VWS V14.01,2013-10-10 06:42:00,
2013-10-10 02:47:00,61.0,53.4,30.00,NNE,32,0.0,0.0,76,0.00,,---,0.00,VWS V14.01,2013-10-10 06:47:00,
2013-10-10 02:52:00,60.8,53.2,30.00,NNE,32,0.0,0.0,76,0.00,,---,0.00,VWS V14.01,2013-10-10 06:52:00,
2013-10-10 02:57:00,60.8,53.2,30.00,NNE,32,0.0,0.0,76,0.00,,---,0.00,VWS V14.01,2013-10-10 06:57:00,
2013-10-10 03:02:00,60.6,53.4,30.00,NNE,32,0.0,0.0,77,0.00,,---,0.00,VWS V14.01,2013-10-10 07:02:00,
2013-10-10 03:07:00,60.4,53.2,30.00,NNE,32,0.0,0.0,77,0.00,,---,0.00,VWS V14.01,2013-10-10 07:07:00,
2013-10-10 03:12:00,60.4,53.2,30.00,NNE,32,0.0,0.0,77,0.00,,---,0.00,VWS V14.01,2013-10-10 07:12:00,
2013-10-10 03:17:00,60.3,53.0,29.97,NNE,32,0.0,0.0,77,0.00,,---,0.00,VWS V14.01,2013-10-10 07:17:00,
2013-10-10 03:22:00,60.1,52.9,29.97,NNE,32,0.0,0.0,77,0.00,,---,0.00,VWS V14.01,2013-10-10 07:22:00,
2013-10-10 03:27:00,60.1,52.9,29.97,NNE,32,0.0,0.0,77,0.00,,---,0.00,VWS V14.01,2013-10-10 07:27:00,
2013-10-10 03:32:00,59.9,52.7,29.97,NNE,32,0.0,0.0,77,0.00,,---,0.00,VWS V14.01,2013-10-10 07:32:00,
2013-10-10 03:37:00,59.9,52.7,29.97,NNE,32,0.0,0.0,77,0.00,,---,0.00,VWS V14.01,2013-10-10 07:37:00,
2013-10-10 03:42:00,59.7,52.5,29.97,NNE,32,0.0,0.0,77,0.00,,---,0.00,VWS V14.01,2013-10-10 07:42:00,
2013-10-10 03:47:00,59.7,52.5,29.97,NNE,31,0.0,0.0,77,0.00,,---,0.00,VWS V14.01,2013-10-10 07:47:00,
2013-10-10 03:52:00,59.7,52.5,29.97,NNE,32,0.0,0.0,77,0.00,,---,0.00,VWS V14.01,2013-10-10 07:52:00,
2013-10-10 03:57:00,59.5,52.3,29.97,NNE,32,0.0,0.0,77,0.00,,---,0.00,VWS V14.01,2013-10-10 07:57:00,
2013-10-10 04:02:00,59.5,52.3,29.97,NNE,31,0.0,0.0,77,0.00,,---,0.00,VWS V14.01,2013-10-10 08:02:00,
2013-10-10 04:13:00,59.4,52.2,29.97,NNE,32,0.0,0.0,77,0.00,,---,0.00,VWS V14.01,2013-10-10 08:13:00,
2013-10-10 04:18:00,59.4,52.2,29.97,NNE,32,0.0,0.0,77,0.00,,---,0.00,VWS V14.01,2013-10-10 08:18:00,
2013-10-10 04:23:00,59.4,52.5,29.97,NNE,32,0.0,0.0,78,0.00,,---,0.00,VWS V14.01,2013-10-10 08:23:00,
2013-10-10 04:28:00,59.4,52.5,29.97,NNE,32,0.0,0.0,78,0.00,,---,0.00,VWS V14.01,2013-10-10 08:28:00,
2013-10-10 04:33:00,59.4,52.5,29.97,NNE,32,0.0,0.0,78,0.00,,---,0.00,VWS V14.01,2013-10-10 08:33:00,
2013-10-10 04:38:00,59.5,52.7,29.97,NNE,32,0.0,0.0,78,0.00,,---,0.00,VWS V14.01,2013-10-10 08:38:00,
2013-10-10 04:43:00,59.5,52.7,29.97,NNE,32,0.0,0.0,78,0.00,,---,0.00,VWS V14.01,2013-10-10 08:43:00,
2013-10-10 04:48:00,59.5,52.7,29.97,NNE,31,0.0,0.0,78,0.00,,---,0.00,VWS V14.01,2013-10-10 08:48:00,
2013-10-10 04:53:00,59.5,52.7,29.97,NNE,32,0.0,0.0,78,0.00,,---,0.00,VWS V14.01,2013-10-10 08:53:00,
2013-10-10 04:58:00,59.7,53.2,29.97,NNE,32,0.0,0.0,79,0.00,,---,0.00,VWS V14.01,2013-10-10 08:58:00,
2013-10-10 05:03:00,59.7,52.9,29.97,NNE,32,0.0,0.0,78,0.00,,---,0.00,VWS V14.01,2013-10-10 09:03:00,
2013-10-10 05:08:00,59.7,53.2,29.97,NNE,32,0.0,0.0,79,0.00,,---,0.00,VWS V14.01,2013-10-10 09:08:00,
2013-10-10 05:13:00,59.7,53.2,29.97,NNE,32,0.0,0.0,79,0.00,,---,0.00,VWS V14.01,2013-10-10 09:13:00,
2013-10-10 05:18:00,59.7,53.2,29.97,NNE,32,0.0,0.0,79,0.00,,---,0.00,VWS V14.01,2013-10-10 09:18:00,
2013-10-10 05:23:00,59.9,53.4,29.97,NNE,32,0.0,0.0,79,0.00,,---,0.00,VWS V14.01,2013-10-10 09:23:00,
2013-10-10 05:28:00,59.9,53.4,29.97,NNE,32,0.0,0.0,79,0.00,,---,0.00,VWS V14.01,2013-10-10 09:28:00,
2013-10-10 05:33:00,60.1,53.6,29.97,NNE,31,0.0,0.0,79,0.00,,---,0.00,VWS V14.01,2013-10-10 09:33:00,
2013-10-10 05:38:00,60.1,53.6,29.97,NNE,32,0.0,0.0,79,0.00,,---,0.00,VWS V14.01,2013-10-10 09:38:00,
2013-10-10 05:43:00,60.1,53.9,29.97,NNE,32,0.0,0.0,80,0.00,,---,0.00,VWS V14.01,2013-10-10 09:43:00,
2013-10-10 05:48:00,60.3,54.1,29.97,NNE,31,0.0,0.0,80,0.00,,---,0.00,VWS V14.01,2013-10-10 09:48:00,
2013-10-10 05:53:00,60.3,54.1,29.97,NNE,32,0.0,0.0,80,0.00,,---,0.00,VWS V14.01,2013-10-10 09:53:00,
2013-10-10 05:58:00,60.3,54.1,29.97,NNE,32,0.0,0.0,80,0.00,,---,0.00,VWS V14.01,2013-10-10 09:58:00,
2013-10-10 06:03:00,60.3,54.1,29.97,NNE,32,0.0,0.0,80,0.00,,---,0.00,VWS V14.01,2013-10-10 10:03:00,
2013-10-10 06:08:00,60.4,54.2,29.97,NNE,32,0.0,0.0,80,0.00,,---,0.00,VWS V14.01,2013-10-10 10:08:00,
2013-10-10 06:13:00,60.4,54.2,29.97,NNE,32,0.0,0.0,80,0.00,,---,0.00,VWS V14.01,2013-10-10 10:13:00,
2013-10-10 06:18:00,60.4,54.2,30.00,NNE,32,0.0,0.0,80,0.00,,---,0.00,VWS V14.01,2013-10-10 10:18:00,
2013-10-10 06:23:00,60.4,54.2,30.00,NNE,32,0.0,0.0,80,0.00,,---,0.00,VWS V14.01,2013-10-10 10:23:00,
2013-10-10 06:28:00,60.6,54.4,30.00,NNE,32,0.0,0.0,80,0.00,,---,0.00,VWS V14.01,2013-10-10 10:28:00,
2013-10-10 06:33:00,60.6,54.4,29.97,NNE,32,0.0,0.0,80,0.00,,---,0.00,VWS V14.01,2013-10-10 10:33:00,
2013-10-10 06:38:00,60.6,54.4,29.97,NNE,32,0.0,0.0,80,0.00,,---,0.00,VWS V14.01,2013-10-10 10:38:00,
2013-10-10 06:43:00,60.4,54.2,29.97,NNE,32,0.0,0.0,80,0.00,,---,0.00,VWS V14.01,2013-10-10 10:43:00,
2013-10-10 06:48:00,60.4,54.2,30.00,NNE,31,0.0,0.0,80,0.00,,---,0.00,VWS V14.01,2013-10-10 10:48:00,
2013-10-10 06:53:00,60.4,54.2,30.00,NNE,32,0.0,0.0,80,0.00,,---,0.00,VWS V14.01,2013-10-10 10:53:00,
2013-10-10 06:58:00,60.4,54.2,30.00,NNE,32,0.0,0.0,80,0.00,,---,0.00,VWS V14.01,2013-10-10 10:58:00,
2013-10-10 07:03:00,60.4,54.2,30.00,NNE,32,0.0,0.0,80,0.00,,---,0.00,VWS V14.01,2013-10-10 11:03:00,
2013-10-10 07:08:00,60.3,54.1,30.00,NNE,32,0.0,0.0,80,0.00,,---,0.00,VWS V14.01,2013-10-10 11:08:00,
2013-10-10 07:13:00,60.3,54.1,30.00,NNE,32,0.0,0.0,80,0.00,,---,0.00,VWS V14.01,2013-10-10 11:13:00,
2013-10-10 07:18:00,60.1,53.9,30.00,NNE,32,0.0,0.0,80,0.00,,---,0.00,VWS V14.01,2013-10-10 11:18:00,
2013-10-10 07:23:00,60.1,53.9,30.00,NNE,32,0.0,0.0,80,0.00,,---,0.00,VWS V14.01,2013-10-10 11:23:00,
2013-10-10 07:28:00,59.9,53.7,30.00,NNE,32,0.0,0.0,80,0.00,,---,0.00,VWS V14.01,2013-10-10 11:28:00,
2013-10-10 07:33:00,59.9,53.7,30.00,NNE,31,0.0,0.0,80,0.00,,---,0.00,VWS V14.01,2013-10-10 11:33:00,
2013-10-10 07:38:00,59.9,54.1,30.00,NNE,32,0.0,0.0,81,0.00,,---,0.00,VWS V14.01,2013-10-10 11:38:00,
2013-10-10 07:43:00,59.9,54.1,30.00,NNE,32,0.0,0.0,81,0.00,,---,0.00,VWS V14.01,2013-10-10 11:43:00,
2013-10-10 07:48:00,59.9,54.1,30.00,NNE,32,0.0,0.0,81,0.00,,---,0.00,VWS V14.01,2013-10-10 11:48:00,
2013-10-10 07:53:00,59.9,54.1,30.00,NNE,31,0.0,0.0,81,0.00,,---,0.00,VWS V14.01,2013-10-10 11:53:00,
2013-10-10 07:58:00,60.1,54.2,30.00,NNE,32,0.0,0.0,81,0.00,,---,0.00,VWS V14.01,2013-10-10 11:58:00,
2013-10-10 08:03:00,60.1,54.2,30.00,NNE,32,0.0,0.0,81,0.00,,---,0.00,VWS V14.01,2013-10-10 12:03:00,
2013-10-10 08:08:00,60.1,54.2,30.00,NNE,32,0.0,0.0,81,0.00,,---,0.00,VWS V14.01,2013-10-10 12:08:00,
2013-10-10 08:13:00,60.3,54.8,30.00,NNE,31,0.0,0.0,82,0.00,,---,0.00,VWS V14.01,2013-10-10 12:13:00,
2013-10-10 08:18:00,60.4,54.9,30.00,North,10,0.0,0.0,82,0.00,,---,0.00,VWS V14.01,2013-10-10 12:18:00,
2013-10-10 08:23:00,60.8,55.6,30.00,North,9,0.0,0.0,83,0.00,,---,0.00,VWS V14.01,2013-10-10 12:23:00,
2013-10-10 08:28:00,61.3,56.5,30.00,NNW,341,0.0,0.0,84,0.00,,---,0.00,VWS V14.01,2013-10-10 12:28:00,
2013-10-10 08:33:00,61.7,56.8,30.00,North,2,0.0,0.0,84,0.00,,---,0.00,VWS V14.01,2013-10-10 12:33:00,
2013-10-10 08:38:00,62.2,57.3,30.00,NNE,14,0.0,0.0,84,0.00,,---,0.00,VWS V14.01,2013-10-10 12:38:00,
2013-10-10 08:43:00,62.6,57.7,30.00,North,6,0.0,0.0,84,0.00,,---,0.00,VWS V14.01,2013-10-10 12:43:00,
2013-10-10 08:48:00,63.0,58.1,29.97,North,6,0.0,0.0,84,0.00,,---,0.00,VWS V14.01,2013-10-10 12:48:00,
2013-10-10 08:53:00,63.1,58.2,29.97,NNE,16,0.0,0.0,84,0.00,,---,0.00,VWS V14.01,2013-10-10 12:53:00,
2013-10-10 08:58:00,63.5,58.6,29.97,East,85,0.0,0.0,84,0.00,,---,0.00,VWS V14.01,2013-10-10 12:58:00,
2013-10-10 09:03:00,63.9,58.9,30.00,North,5,0.0,0.0,84,0.00,,---,0.00,VWS V14.01,2013-10-10 13:03:00,
2013-10-10 09:08:00,64.2,59.6,30.00,NNE,15,0.0,0.0,85,0.00,,---,0.00,VWS V14.01,2013-10-10 13:08:00,
2013-10-10 09:13:00,64.4,59.8,30.00,NE,38,0.0,4.0,85,0.00,,---,0.00,VWS V14.01,2013-10-10 13:13:00,
2013-10-10 09:18:00,64.9,60.7,30.00,ENE,65,0.0,0.0,86,0.00,,---,0.00,VWS V14.01,2013-10-10 13:18:00,
2013-10-10 09:23:00,65.7,61.7,30.00,WNW,294,0.0,0.0,87,0.00,,---,0.00,VWS V14.01,2013-10-10 13:23:00,
2013-10-10 09:28:00,66.4,62.4,30.00,NNW,327,0.0,0.0,87,0.00,,---,0.00,VWS V14.01,2013-10-10 13:28:00,
2013-10-10 09:33:00,66.7,62.4,30.00,WNW,287,0.0,0.0,86,0.00,,---,0.00,VWS V14.01,2013-10-10 13:33:00,
2013-10-10 09:38:00,67.1,62.8,30.00,East,98,0.0,0.0,86,0.00,,---,0.00,VWS V14.01,2013-10-10 13:38:00,
2013-10-10 09:43:00,67.5,63.5,30.00,NNE,24,3.1,3.1,87,0.00,,---,0.00,VWS V14.01,2013-10-10 13:43:00,
2013-10-10 09:48:00,68.0,64.0,30.00,NNE,20,0.0,0.0,87,0.00,,---,0.00,VWS V14.01,2013-10-10 13:48:00,
2013-10-10 09:53:00,68.4,64.0,30.00,SW,226,0.0,0.0,86,0.00,,---,0.00,VWS V14.01,2013-10-10 13:53:00,
2013-10-10 09:58:00,68.7,64.4,30.00,ESE,111,0.0,0.0,86,0.00,,---,0.00,VWS V14.01,2013-10-10 13:58:00,
2013-10-10 10:03:00,69.1,64.7,30.00,WNW,303,3.1,3.6,86,0.00,,---,0.00,VWS V14.01,2013-10-10 14:03:00,
2013-10-10 10:08:00,69.4,64.4,30.00,NNE,28,0.0,2.2,84,0.00,,---,0.00,VWS V14.01,2013-10-10 14:08:00,
2013-10-10 10:13:00,70.0,64.9,30.00,NNW,335,0.0,2.7,84,0.00,,---,0.00,VWS V14.01,2013-10-10 14:13:00,
2013-10-10 10:18:00,70.5,65.1,30.00,North,353,0.0,3.1,83,0.00,,---,0.00,VWS V14.01,2013-10-10 14:18:00,
2013-10-10 10:23:00,70.9,65.1,30.00,ENE,67,3.6,3.6,82,0.00,,---,0.00,VWS V14.01,2013-10-10 14:23:00,
2013-10-10 10:28:00,71.2,65.1,30.00,ESE,123,3.1,5.4,81,0.00,,---,0.00,VWS V14.01,2013-10-10 14:28:00,
2013-10-10 10:33:00,71.8,64.9,30.00,NNE,28,2.2,2.7,79,0.00,,---,0.00,VWS V14.01,2013-10-10 14:33:00,
2013-10-10 10:38:00,72.3,65.1,30.00,NNE,29,2.7,4.0,78,0.00,,---,0.00,VWS V14.01,2013-10-10 14:38:00,
2013-10-10 10:43:00,72.5,63.0,30.00,WNW,282,0.0,2.7,72,0.00,,---,0.00,VWS V14.01,2013-10-10 14:43:00,
2013-10-10 10:48:00,72.7,62.3,30.00,North,353,0.0,0.0,70,0.00,,---,0.00,VWS V14.01,2013-10-10 14:48:00,
2013-10-10 10:53:00,72.9,63.3,30.00,NNW,345,0.0,0.0,72,0.00,,---,0.00,VWS V14.01,2013-10-10 14:53:00,
2013-10-10 10:58:00,73.0,62.3,30.00,ENE,70,0.0,4.0,69,0.00,,---,0.00,VWS V14.01,2013-10-10 14:58:00,
2013-10-10 11:03:00,73.4,62.6,30.00,ENE,69,0.0,0.0,69,0.00,,---,0.00,VWS V14.01,2013-10-10 15:03:00,
2013-10-10 11:08:00,73.8,63.4,30.00,ENE,57,0.0,0.0,70,0.00,,---,0.00,VWS V14.01,2013-10-10 15:08:00,
2013-10-10 11:13:00,73.9,60.6,30.00,NW,317,0.0,3.6,63,0.00,,---,0.00,VWS V14.01,2013-10-10 15:13:00,
2013-10-10 11:18:00,74.1,60.7,30.00,ENE,72,0.0,0.0,63,0.00,,---,0.00,VWS V14.01,2013-10-10 15:18:00,
2013-10-10 11:23:00,74.5,61.5,30.00,NNE,30,3.1,3.1,64,0.00,,---,0.00,VWS V14.01,2013-10-10 15:23:00,
2013-10-10 11:28:00,74.8,61.4,30.00,ENE,73,5.4,5.4,63,0.00,,---,0.00,VWS V14.01,2013-10-10 15:28:00,
2013-10-10 11:33:00,75.4,62.4,30.00,North,0,3.1,3.1,64,0.00,,---,0.00,VWS V14.01,2013-10-10 15:33:00,
2013-10-10 11:38:00,75.7,61.8,30.00,North,5,2.2,2.2,62,0.00,,---,0.00,VWS V14.01,2013-10-10 15:38:00,
2013-10-10 11:43:00,76.1,62.6,30.00,NNE,14,0.0,0.0,63,0.00,,---,0.00,VWS V14.01,2013-10-10 15:43:00,
2013-10-10 11:48:00,76.3,62.3,30.00,ENE,59,0.0,0.0,62,0.00,,---,0.00,VWS V14.01,2013-10-10 15:48:00,
2013-10-10 11:53:00,76.3,57.9,30.00,WSW,243,3.6,3.6,53,0.00,,---,0.00,VWS V14.01,2013-10-10 15:53:00,
2013-10-10 11:58:00,76.5,58.6,30.00,SSE,164,0.0,0.0,54,0.00,,---,0.00,VWS V14.01,2013-10-10 15:58:00,
2013-10-10 12:03:00,76.5,56.5,30.00,WNW,290,0.0,0.0,50,0.00,,---,0.00,VWS V14.01,2013-10-10 16:03:00,
2013-10-10 12:08:00,76.6,57.7,30.00,NW,307,0.0,3.6,52,0.00,,---,0.00,VWS V14.01,2013-10-10 16:08:00,
2013-10-10 12:13:00,77.0,59.1,30.00,WNW,295,0.0,3.1,54,0.00,,---,0.00,VWS V14.01,2013-10-10 16:13:00,
2013-10-10 12:18:00,77.4,57.8,30.00,North,9,0.0,0.0,51,0.00,,---,0.00,VWS V14.01,2013-10-10 16:18:00,
2013-10-10 12:24:00,77.5,58.5,30.00,NE,43,2.7,4.0,52,0.00,,---,0.00,VWS V14.01,2013-10-10 16:24:00,
2013-10-10 12:29:00,77.7,56.5,30.00,WNW,290,2.2,2.7,48,0.00,,---,0.00,VWS V14.01,2013-10-10 16:29:00,
2013-10-10 12:34:00,78.1,59.0,30.00,ENE,70,2.7,2.7,52,0.00,,---,0.00,VWS V14.01,2013-10-10 16:34:00,
2013-10-10 12:39:00,78.4,58.8,30.00,NNE,23,4.0,4.9,51,0.00,,---,0.00,VWS V14.01,2013-10-10 16:39:00,
2013-10-10 12:44:00,78.4,56.0,30.00,WSW,252,0.0,0.0,46,0.00,,---,0.00,VWS V14.01,2013-10-10 16:44:00,
2013-10-10 12:49:00,78.4,58.3,30.00,NNW,348,3.1,3.1,50,0.00,,---,0.00,VWS V14.01,2013-10-10 16:49:00,
2013-10-10 12:54:00,78.6,58.4,30.00,NNW,330,3.6,4.5,50,0.00,,---,0.00,VWS V14.01,2013-10-10 16:54:00,
2013-10-10 12:59:00,79.0,58.8,30.00,SSE,160,0.0,0.0,50,0.00,,---,0.00,VWS V14.01,2013-10-10 16:59:00,
2013-10-10 13:04:00,79.3,56.8,30.00,NNW,331,0.0,3.6,46,0.00,,---,0.00,VWS V14.01,2013-10-10 17:04:00,
2013-10-10 13:09:00,79.5,58.1,30.00,ENE,70,0.0,0.0,48,0.00,,---,0.00,VWS V14.01,2013-10-10 17:09:00,
2013-10-10 13:14:00,79.3,53.6,30.00,West,263,2.7,3.1,41,0.00,,---,0.00,VWS V14.01,2013-10-10 17:14:00,
2013-10-10 13:19:00,79.5,55.7,30.00,NNW,330,2.7,2.7,44,0.00,,---,0.00,VWS V14.01,2013-10-10 17:19:00,
2013-10-10 13:24:00,79.7,55.9,30.00,NNW,343,0.0,3.1,44,0.00,,---,0.00,VWS V14.01,2013-10-10 17:24:00,
2013-10-10 13:29:00,79.9,54.1,30.00,NW,311,2.7,2.7,41,0.00,,---,0.00,VWS V14.01,2013-10-10 17:29:00,
2013-10-10 13:34:00,80.4,56.5,30.00,ESE,122,2.7,2.7,44,0.00,,---,0.00,VWS V14.01,2013-10-10 17:34:00,
2013-10-10 13:39:00,80.8,56.9,30.00,North,353,0.0,0.0,44,0.00,,---,0.00,VWS V14.01,2013-10-10 17:39:00,
2013-10-10 13:44:00,81.3,56.7,30.00,East,80,3.1,3.1,43,0.00,,---,0.00,VWS V14.01,2013-10-10 17:44:00,
2013-10-10 13:49:00,81.5,56.2,29.97,NNW,345,0.0,0.0,42,0.00,,---,0.00,VWS V14.01,2013-10-10 17:49:00,
2013-10-10 13:54:00,81.5,56.2,29.97,NNW,336,0.0,3.6,42,0.00,,---,0.00,VWS V14.01,2013-10-10 17:54:00,
2013-10-10 13:59:00,81.3,55.4,29.97,ENE,57,2.7,4.0,41,0.00,,---,0.00,VWS V14.01,2013-10-10 17:59:00,
2013-10-10 14:04:00,81.3,55.4,29.97,NNW,343,0.0,0.0,41,0.00,,---,0.00,VWS V14.01,2013-10-10 18:04:00,
2013-10-10 14:09:00,81.3,54.7,29.97,SW,235,4.0,4.0,40,0.00,,---,0.00,VWS V14.01,2013-10-10 18:09:00,
2013-10-10 14:14:00,81.7,55.0,29.97,SW,235,0.0,0.0,40,0.00,,---,0.00,VWS V14.01,2013-10-10 18:14:00,
2013-10-10 14:19:00,81.9,55.2,29.97,North,357,3.1,3.6,40,0.00,,---,0.00,VWS V14.01,2013-10-10 18:19:00,
2013-10-10 14:24:00,81.9,54.5,29.97,West,259,7.6,7.6,39,0.00,,---,0.00,VWS V14.01,2013-10-10 18:24:00,
2013-10-10 14:29:00,82.2,55.5,29.97,NE,39,4.9,4.9,40,0.00,,---,0.00,VWS V14.01,2013-10-10 18:29:00,
2013-10-10 14:34:00,82.6,55.8,29.97,ENE,58,0.0,0.0,40,0.00,,---,0.00,VWS V14.01,2013-10-10 18:34:00,
2013-10-10 14:39:00,82.4,52.8,29.97,SW,226,2.7,2.7,36,0.00,,---,0.00,VWS V14.01,2013-10-10 18:39:00,
2013-10-10 14:44:00,82.6,55.1,29.97,SSW,204,0.0,0.0,39,0.00,,---,0.00,VWS V14.01,2013-10-10 18:44:00,
2013-10-10 14:49:00,82.6,55.1,29.97,West,261,4.0,5.4,39,0.00,,---,0.00,VWS V14.01,2013-10-10 18:49:00,
2013-10-10 14:54:00,82.8,55.3,29.97,WNW,302,0.0,0.0,39,0.00,,---,0.00,VWS V14.01,2013-10-10 18:54:00,
2013-10-10 14:59:00,82.9,55.5,29.97,ENE,68,0.0,2.2,39,0.00,,---,0.00,VWS V14.01,2013-10-10 18:59:00,
2013-10-10 15:04:00,82.9,55.5,29.97,SW,223,2.7,3.1,39,0.00,,---,0.00,VWS V14.01,2013-10-10 19:04:00,
2013-10-10 15:09:00,82.9,55.5,29.97,East,100,0.0,0.0,39,0.00,,---,0.00,VWS V14.01,2013-10-10 19:09:00,
2013-10-10 15:14:00,82.9,55.5,29.97,NE,34,0.0,0.0,39,0.00,,---,0.00,VWS V14.01,2013-10-10 19:14:00,
2013-10-10 15:19:00,82.8,55.3,29.97,West,281,2.7,2.7,39,0.00,,---,0.00,VWS V14.01,2013-10-10 19:19:00,
2013-10-10 15:24:00,83.3,55.8,29.97,North,1,3.1,3.6,39,0.00,,---,0.00,VWS V14.01,2013-10-10 19:24:00,
2013-10-10 15:29:00,83.1,55.6,29.97,NNW,346,2.7,2.7,39,0.00,,---,0.00,VWS V14.01,2013-10-10 19:29:00,
2013-10-10 15:34:00,82.8,55.3,29.97,SW,218,0.0,0.0,39,0.00,,---,0.00,VWS V14.01,2013-10-10 19:34:00,
2013-10-10 15:39:00,82.8,55.3,29.97,NE,56,4.0,4.0,39,0.00,,---,0.00,VWS V14.01,2013-10-10 19:39:00,
2013-10-10 15:44:00,82.8,55.3,29.97,North,7,0.0,0.0,39,0.00,,---,0.00,VWS V14.01,2013-10-10 19:44:00,
2013-10-10 15:49:00,82.8,55.3,29.97,North,357,0.0,2.2,39,0.00,,---,0.00,VWS V14.01,2013-10-10 19:49:00,
2013-10-10 15:54:00,82.8,53.1,29.97,SW,218,0.0,2.2,36,0.00,,---,0.00,VWS V14.01,2013-10-10 19:54:00,
2013-10-10 15:59:00,82.9,55.5,29.97,South,190,0.0,0.0,39,0.00,,---,0.00,VWS V14.01,2013-10-10 19:59:00,
2013-10-10 16:04:00,82.9,55.5,29.97,WNW,284,0.0,0.0,39,0.00,,---,0.00,VWS V14.01,2013-10-10 20:04:00,
2013-10-10 16:09:00,82.9,55.5,29.97,ENE,69,4.0,4.0,39,0.00,,---,0.00,VWS V14.01,2013-10-10 20:09:00,
2013-10-10 16:14:00,82.8,53.1,29.97,WSW,243,0.0,0.0,36,0.00,,---,0.00,VWS V14.01,2013-10-10 20:14:00,
2013-10-10 16:19:00,82.8,53.1,29.97,NE,36,2.2,3.1,36,0.00,,---,0.00,VWS V14.01,2013-10-10 20:19:00,
2013-10-10 16:24:00,82.8,53.1,29.97,ENE,59,0.0,3.6,36,0.00,,---,0.00,VWS V14.01,2013-10-10 20:24:00,
2013-10-10 16:29:00,82.4,52.8,29.97,NE,35,2.2,2.7,36,0.00,,---,0.00,VWS V14.01,2013-10-10 20:29:00,
2013-10-10 16:31:00,82.4,52.8,29.97,West,280,0.0,2.2,36,0.00,,---,0.00,VWS V14.01,2013-10-10 20:31:00,
2013-10-10 16:36:00,82.2,53.4,29.97,WNW,296,2.7,2.7,37,0.00,,---,0.00,VWS V14.01,2013-10-10 20:36:00,
2013-10-10 16:41:00,82.4,52.8,29.97,North,6,2.2,3.1,36,0.00,,---,0.00,VWS V14.01,2013-10-10 20:41:00,
2013-10-10 16:46:00,82.4,52.8,29.97,ENE,70,0.0,0.0,36,0.00,,---,0.00,VWS V14.01,2013-10-10 20:46:00,
2013-10-10 16:51:00,82.2,53.4,29.97,NNE,24,0.0,0.0,37,0.00,,---,0.00,VWS V14.01,2013-10-10 20:51:00,
2013-10-10 16:56:00,82.0,53.2,29.97,NNW,337,2.7,2.7,37,0.00,,---,0.00,VWS V14.01,2013-10-10 20:56:00,
2013-10-10 17:01:00,82.0,53.2,29.97,North,0,0.0,0.0,37,0.00,,---,0.00,VWS V14.01,2013-10-10 21:01:00,
2013-10-10 17:06:00,82.0,53.2,29.97,North,7,0.0,0.0,37,0.00,,---,0.00,VWS V14.01,2013-10-10 21:06:00,
2013-10-10 17:11:00,81.9,53.1,29.97,NNW,342,0.0,0.0,37,0.00,,---,0.00,VWS V14.01,2013-10-10 21:11:00,
2013-10-10 17:16:00,81.9,53.1,29.97,North,357,2.2,2.2,37,0.00,,---,0.00,VWS V14.01,2013-10-10 21:16:00,
2013-10-10 17:21:00,81.7,52.9,29.97,NNE,17,0.0,0.0,37,0.00,,---,0.00,VWS V14.01,2013-10-10 21:21:00,
2013-10-10 17:26:00,81.5,52.7,29.97,North,349,0.0,0.0,37,0.00,,---,0.00,VWS V14.01,2013-10-10 21:26:00,
2013-10-10 17:31:00,81.1,52.4,29.97,East,94,0.0,0.0,37,0.00,,---,0.00,VWS V14.01,2013-10-10 21:31:00,
2013-10-10 17:36:00,81.0,52.3,29.97,NE,53,0.0,0.0,37,0.00,,---,0.00,VWS V14.01,2013-10-10 21:36:00,
2013-10-10 17:41:00,80.8,52.1,29.97,NE,35,0.0,0.0,37,0.00,,---,0.00,VWS V14.01,2013-10-10 21:41:00,
2013-10-10 17:46:00,80.8,52.1,29.97,NNE,25,0.0,0.0,37,0.00,,---,0.00,VWS V14.01,2013-10-10 21:46:00,
2013-10-10 17:51:00,80.4,51.8,29.97,ENE,59,2.2,2.7,37,0.00,,---,0.00,VWS V14.01,2013-10-10 21:51:00,
2013-10-10 17:56:00,80.4,51.8,29.97,NE,51,0.0,0.0,37,0.00,,---,0.00,VWS V14.01,2013-10-10 21:56:00,
2013-10-10 18:01:00,80.1,51.5,29.97,ENE,66,0.0,0.0,37,0.00,,---,0.00,VWS V14.01,2013-10-10 22:01:00,
2013-10-10 18:06:00,79.9,51.3,29.97,NE,48,0.0,0.0,37,0.00,,---,0.00,VWS V14.01,2013-10-10 22:06:00,
2013-10-10 18:11:00,79.5,51.0,29.97,East,94,0.0,0.0,37,0.00,,---,0.00,VWS V14.01,2013-10-10 22:11:00,
2013-10-10 18:16:00,79.2,50.7,29.97,East,94,0.0,0.0,37,0.00,,---,0.00,VWS V14.01,2013-10-10 22:16:00,
2013-10-10 18:21:00,79.0,50.5,29.97,East,94,0.0,0.0,37,0.00,,---,0.00,VWS V14.01,2013-10-10 22:21:00,
2013-10-10 18:26:00,78.6,50.9,29.97,East,94,0.0,0.0,38,0.00,,---,0.00,VWS V14.01,2013-10-10 22:26:00,
2013-10-10 18:31:00,78.3,50.6,29.97,East,94,0.0,0.0,38,0.00,,---,0.00,VWS V14.01,2013-10-10 22:31:00,
2013-10-10 18:36:00,77.7,50.1,29.97,East,94,0.0,0.0,38,0.00,,---,0.00,VWS V14.01,2013-10-10 22:36:00,
2013-10-10 18:41:00,77.2,49.6,29.97,East,94,0.0,0.0,38,0.00,,---,0.00,VWS V14.01,2013-10-10 22:41:00,
2013-10-10 18:46:00,76.6,49.2,29.97,East,94,0.0,0.0,38,0.00,,---,0.00,VWS V14.01,2013-10-10 22:46:00,
2013-10-10 18:51:00,75.7,48.4,29.97,East,94,0.0,0.0,38,0.00,,---,0.00,VWS V14.01,2013-10-10 22:51:00,
2013-10-10 18:56:00,75.2,47.9,29.97,East,94,0.0,0.0,38,0.00,,---,0.00,VWS V14.01,2013-10-10 22:56:00,
2013-10-10 19:01:00,74.5,47.2,29.97,East,94,0.0,0.0,38,0.00,,---,0.00,VWS V14.01,2013-10-10 23:01:00,
2013-10-10 19:06:00,73.8,48.6,29.97,East,94,0.0,0.0,41,0.00,,---,0.00,VWS V14.01,2013-10-10 23:06:00,
2013-10-10 19:11:00,73.2,48.1,29.97,East,94,0.0,0.0,41,0.00,,---,0.00,VWS V14.01,2013-10-10 23:11:00,
2013-10-10 19:16:00,72.3,47.3,29.97,East,94,0.0,0.0,41,0.00,,---,0.00,VWS V14.01,2013-10-10 23:16:00,
2013-10-10 19:21:00,71.8,46.8,29.97,East,94,0.0,0.0,41,0.00,,---,0.00,VWS V14.01,2013-10-10 23:21:00,
2013-10-10 19:26:00,71.1,46.8,29.97,East,94,0.0,0.0,42,0.00,,---,0.00,VWS V14.01,2013-10-10 23:26:00,
2013-10-10 19:31:00,70.7,46.5,29.97,East,94,0.0,0.0,42,0.00,,---,0.00,VWS V14.01,2013-10-10 23:31:00,
2013-10-10 19:36:00,70.2,46.0,30.00,East,94,0.0,0.0,42,0.00,,---,0.00,VWS V14.01,2013-10-10 23:36:00,
2013-10-10 19:41:00,69.6,45.5,30.00,East,94,0.0,0.0,42,0.00,,---,0.00,VWS V14.01,2013-10-10 23:41:00,
2013-10-10 19:46:00,69.3,45.2,30.00,East,94,0.0,0.0,42,0.00,,---,0.00,VWS V14.01,2013-10-10 23:46:00,
2013-10-10 19:51:00,68.9,45.5,30.00,East,94,0.0,0.0,43,0.00,,---,0.00,VWS V14.01,2013-10-10 23:51:00,
2013-10-10 19:56:00,68.7,45.3,30.00,East,94,0.0,0.0,43,0.00,,---,0.00,VWS V14.01,2013-10-10 23:56:00,
2013-10-10 20:01:00,68.4,45.0,30.00,East,94,0.0,0.0,43,0.00,,---,0.00,VWS V14.01,2013-10-11 00:01:00,
2013-10-10 20:06:00,68.0,44.7,30.00,East,94,0.0,0.0,43,0.00,,---,0.00,VWS V14.01,2013-10-11 00:06:00,
2013-10-10 20:11:00,67.8,45.1,30.00,East,94,0.0,0.0,44,0.00,,---,0.00,VWS V14.01,2013-10-11 00:11:00,
2013-10-10 20:16:00,67.5,44.8,30.00,East,94,0.0,0.0,44,0.00,,---,0.00,VWS V14.01,2013-10-11 00:16:00,
2013-10-10 20:21:00,67.3,44.7,30.00,East,94,0.0,0.0,44,0.00,,---,0.00,VWS V14.01,2013-10-11 00:21:00,
2013-10-10 20:26:00,67.1,44.5,30.00,East,94,0.0,0.0,44,0.00,,---,0.00,VWS V14.01,2013-10-11 00:26:00,
2013-10-10 20:31:00,66.9,44.3,30.00,East,94,0.0,0.0,44,0.00,,---,0.00,VWS V14.01,2013-10-11 00:31:00,
2013-10-10 20:36:00,66.7,44.2,30.00,East,94,0.0,0.0,44,0.00,,---,0.00,VWS V14.01,2013-10-11 00:36:00,
2013-10-10 20:41:00,66.6,44.6,30.00,East,94,0.0,0.0,45,0.00,,---,0.00,VWS V14.01,2013-10-11 00:41:00,
2013-10-10 20:46:00,66.4,44.4,30.00,East,94,0.0,0.0,45,0.00,,---,0.00,VWS V14.01,2013-10-11 00:46:00,
2013-10-10 20:51:00,66.2,44.2,30.00,East,94,0.0,0.0,45,0.00,,---,0.00,VWS V14.01,2013-10-11 00:51:00,
2013-10-10 20:56:00,66.0,44.7,30.00,East,94,0.0,0.0,46,0.00,,---,0.00,VWS V14.01,2013-10-11 00:56:00,
2013-10-10 21:01:00,65.8,44.5,30.00,East,94,0.0,0.0,46,0.00,,---,0.00,VWS V14.01,2013-10-11 01:01:00,
2013-10-10 21:06:00,65.7,44.3,30.00,East,94,0.0,0.0,46,0.00,,---,0.00,VWS V14.01,2013-10-11 01:06:00,
2013-10-10 21:11:00,65.5,44.7,30.00,East,94,0.0,0.0,47,0.00,,---,0.00,VWS V14.01,2013-10-11 01:11:00,
2013-10-10 21:16:00,65.5,44.7,30.00,East,94,0.0,0.0,47,0.00,,---,0.00,VWS V14.01,2013-10-11 01:16:00,
2013-10-10 21:21:00,65.3,44.6,30.00,East,94,0.0,0.0,47,0.00,,---,0.00,VWS V14.01,2013-10-11 01:21:00,
2013-10-10 21:26:00,65.1,45.0,30.00,East,94,0.0,0.0,48,0.00,,---,0.00,VWS V14.01,2013-10-11 01:26:00,
2013-10-10 21:31:00,64.9,44.8,30.00,East,94,0.0,0.0,48,0.00,,---,0.00,VWS V14.01,2013-10-11 01:31:00,
2013-10-10 21:36:00,64.8,44.6,30.00,East,94,0.0,0.0,48,0.00,,---,0.00,VWS V14.01,2013-10-11 01:36:00,
2013-10-10 21:41:00,64.8,45.2,30.00,East,94,0.0,0.0,49,0.00,,---,0.00,VWS V14.01,2013-10-11 01:41:00,
2013-10-10 21:46:00,64.6,45.0,30.00,East,94,0.0,0.0,49,0.00,,---,0.00,VWS V14.01,2013-10-11 01:46:00,
2013-10-10 21:51:00,64.4,45.4,30.00,East,94,0.0,0.0,50,0.00,,---,0.00,VWS V14.01,2013-10-11 01:51:00,
2013-10-10 21:56:00,64.4,45.4,30.00,East,94,0.0,0.0,50,0.00,,---,0.00,VWS V14.01,2013-10-11 01:56:00,
2013-10-10 22:01:00,64.2,45.2,30.00,East,94,0.0,0.0,50,0.00,,---,0.00,VWS V14.01,2013-10-11 02:01:00,
2013-10-10 22:06:00,64.0,45.6,30.00,East,94,0.0,0.0,51,0.00,,---,0.00,VWS V14.01,2013-10-11 02:06:00,
2013-10-10 22:11:00,64.0,45.6,30.00,East,94,0.0,0.0,51,0.00,,---,0.00,VWS V14.01,2013-10-11 02:11:00,
2013-10-10 22:16:00,63.9,45.4,30.00,East,94,0.0,0.0,51,0.00,,---,0.00,VWS V14.01,2013-10-11 02:16:00,
2013-10-10 22:21:00,63.7,45.8,30.00,East,94,0.0,0.0,52,0.00,,---,0.00,VWS V14.01,2013-10-11 02:21:00,
2013-10-10 22:26:00,63.5,45.6,30.00,East,94,0.0,0.0,52,0.00,,---,0.00,VWS V14.01,2013-10-11 02:26:00,
2013-10-10 22:31:00,63.5,45.6,30.00,East,94,0.0,0.0,52,0.00,,---,0.00,VWS V14.01,2013-10-11 02:31:00,
2013-10-10 22:36:00,63.3,45.9,30.00,East,94,0.0,0.0,53,0.00,,---,0.00,VWS V14.01,2013-10-11 02:36:00,
2013-10-10 22:41:00,63.3,45.9,30.00,East,94,0.0,0.0,53,0.00,,---,0.00,VWS V14.01,2013-10-11 02:41:00,
2013-10-10 22:46:00,63.1,45.8,30.00,East,94,0.0,0.0,53,0.00,,---,0.00,VWS V14.01,2013-10-11 02:46:00,
2013-10-10 22:51:00,63.1,45.8,30.00,East,94,0.0,0.0,53,0.00,,---,0.00,VWS V14.01,2013-10-11 02:51:00,
2013-10-10 22:56:00,63.0,45.6,30.00,East,94,0.0,0.0,53,0.00,,---,0.00,VWS V14.01,2013-10-11 02:56:00,
2013-10-10 23:01:00,63.0,45.6,30.00,East,94,0.0,0.0,53,0.00,,---,0.00,VWS V14.01,2013-10-11 03:01:00,
2013-10-10 23:06:00,62.8,45.4,30.00,East,94,0.0,0.0,53,0.00,,---,0.00,VWS V14.01,2013-10-11 03:06:00,
2013-10-10 23:11:00,62.6,45.7,30.00,East,94,0.0,0.0,54,0.00,,---,0.00,VWS V14.01,2013-10-11 03:11:00,
2013-10-10 23:16:00,62.6,45.7,30.00,East,94,0.0,0.0,54,0.00,,---,0.00,VWS V14.01,2013-10-11 03:16:00,
2013-10-10 23:21:00,62.6,45.7,30.00,East,94,0.0,0.0,54,0.00,,---,0.00,VWS V14.01,2013-10-11 03:21:00,
2013-10-10 23:26:00,62.4,45.6,30.00,East,94,0.0,0.0,54,0.00,,---,0.00,VWS V14.01,2013-10-11 03:26:00,
2013-10-10 23:31:00,62.4,45.6,30.00,East,94,0.0,0.0,54,0.00,,---,0.00,VWS V14.01,2013-10-11 03:31:00,
2013-10-10 23:36:00,62.2,45.4,30.00,East,94,0.0,0.0,54,0.00,,---,0.00,VWS V14.01,2013-10-11 03:36:00,
2013-10-10 23:41:00,62.2,45.4,30.00,East,94,0.0,0.0,54,0.00,,---,0.00,VWS V14.01,2013-10-11 03:41:00,
2013-10-10 23:46:00,62.1,45.2,30.00,East,94,0.0,0.0,54,0.00,,---,0.00,VWS V14.01,2013-10-11 03:46:00,
2013-10-10 23:51:00,62.1,45.2,30.00,East,94,0.0,0.0,54,0.00,,---,0.00,VWS V14.01,2013-10-11 03:51:00,
2013-10-10 23:56:00,61.9,45.5,30.00,East,94,0.0,0.0,55,0.00,,---,0.00,VWS V14.01,2013-10-11 03:56:00,